Regional Weather Roundup
Issued by NWS Goodland, KS

Home | Current Version | Previous Version | Graphics & Text | Print | Product List | Glossary On
Versions: 1 2 3 4 5 6 7 8 9 10 11 12 13 14 15 16 17 18 19 20 21 22 23 24 25 26 27 28 29 30 31 32 33 34 35 36 37 38 39 40 41 42 43 44 45 46 47 48 49 50
000
ASUS43 KGLD 140959
RWRGLD

GOODLAND FORECAST AREA HOURLY WEATHER ROUNDUP
NATIONAL WEATHER SERVICE GOODLAND KS
300 AM MST THU DEC 14 2017

...OFFICIAL OBSERVATIONS...

CITY           SKY/WX    TMP DP  RH WIND       PRES   REMARKS
GOODLAND KS    CLOUDY    36  23  59 N10G23    30.12S
HILL CITY KS   NOT AVBL
IMPERIAL NEB   CLOUDY    36  23  59 NW9       30.13R
MCCOOK NEB     CLOUDY    37  23  56 NW10      30.11S
AKRON CO       LGT SNOW  30  27  88 NW14      30.15S FOG     WCI  19
BURLINGTON CO  FLURRIES  32  27  81 N14       30.15R
LIMON CO       LGT SNOW  28  27  96 NW12      30.16R FOG     WCI  18
$$

...UNOFFICIAL OBSERVATIONS...

CITY           SKY/WX    TMP DP  RH WIND       PRES   REMARKS
LENORA KS        N/A     36  32  85 NW5         N/A
NORTON KS      CLOUDY    36  18  48 W8        30.09
SHARON SPRINGS   N/A     37  23  56 NW7         N/A
TRENTON NEB      N/A     35  32  89 NW6         N/A
KIT CARSON CO    N/A     32  26  79 MISG        N/A
YUMA CO        FLURRIES  30  28  93 W9        30.15S
$$




USA.gov is the U.S. government's official web portal to all federal, state and local government web resources and services.